N1TKS Weather Reports


time (UTC)temp
C
wind
direction
speed
KPH
gust
KPH
rain 1hr
cm
rain 24hr
cm
rain mn
cm
humidity
%
barometer
mb
20260504173156 20 155 3.2 4.8 0.00 0.00 0.00 39 1011.1
20260504172654 20 182 3.2 4.8 0.00 0.00 0.00 38 1011.1
20260504172156 20 236 3.2 4.8 0.00 0.00 0.00 37 1011.2
20260504172124 20 204 4.8 4.8 0.00 0.00 0.00 37 1011.6
20260504171725 20 240 4.8 16.1 0.00 0.00 0.00 38 1011.4
20260504171654 20 240 4.8 16.1 0.00 0.00 0.00 38 1011.4
20260504171312 20 222 4.8 4.8 0.00 0.00 0.00 37 1011.4
20260504171157 20 222 4.8 4.8 0.00 0.00 0.00 37 1011.4
20260504170155 20 194 3.2 4.8 0.00 0.00 0.00 37 1011.4
20260504160249 19 211 4.8 19.3 0.00 0.00 0.00 38 1012.5
20260504150912 18 234 8.0 19.3 0.00 0.00 0.00 40 1013.1
20260504150153 18 234 8.0 19.3 0.00 0.00 0.00 40 1013.1
20260504141153 16 237 4.8 8.0 0.00 0.00 0.00 44 1013.5
20260504140919 16 251 3.2 4.8 0.00 0.00 0.00 48 1013.7
20260504140751 16 227 11.3 11.3 0.00 0.00 0.00 42 1013.5
20260504140654 16 227 11.3 11.3 0.00 0.00 0.00 42 1013.5
20260504130514 13 240 4.8 4.8 0.00 0.00 0.00 50 1014.2
20260504130154 15 232 3.2 14.5 0.00 0.00 0.00 51 1014.0
20260504120257 13 235 3.2 8.0 0.00 0.00 0.00 49 1014.2
20260504120154 13 235 3.2 8.0 0.00 0.00 0.00 49 1014.2
20260504120109 12 239 3.2 4.8 0.00 0.00 0.00 54 1014.1
20260504110654 10 235 3.2 4.8 0.00 0.00 0.00 58 1014.2
20260504110153 10 234 3.2 8.0 0.00 0.00 0.00 59 1014.2
20260504081652 11 255 3.2 4.8 0.00 0.00 0.00 53 1013.4
20260504081153 11 248 3.2 3.2 0.00 0.00 0.00 53 1013.4
20260504080235 11 243 1.6 3.2 0.00 0.00 0.00 54 1013.2
20260504080153 11 264 3.2 4.8 0.00 0.00 0.00 53 1013.3
20260504070153 6 263 1.6 3.2 0.00 0.00 0.00 74 1013.0
20260504060152 6 263 0.0 0.0 0.00 0.00 0.00 79 1013.0
20260504050153 6 263 0.0 0.0 0.00 0.00 0.00 79 1012.9
20260504045555 6 263 0.0 0.0 0.00 0.00 0.00 78 1012.8
20260504045154 6 263 0.0 0.0 0.00 0.00 0.00 78 1012.8
20260504044756 6 263 0.0 0.0 0.00 0.00 0.00 78 1012.8
20260504044654 6 263 0.0 0.0 0.00 0.00 0.00 78 1012.8
20260504044152 6 263 0.0 0.0 0.00 0.00 0.00 77 1012.8
20260504043653 6 263 0.0 0.0 0.00 0.00 0.00 77 1012.7
20260504043618 6 263 0.0 0.0 0.00 0.00 0.00 76 1012.7
20260504043152 6 263 0.0 0.0 0.00 0.00 0.00 76 1012.7
20260504042706 6 263 0.0 0.0 0.00 0.00 0.00 75 1012.7
20260504042243 6 263 0.0 0.0 0.00 0.00 0.00 75 1012.7
20260504042154 6 263 0.0 0.0 0.00 0.00 0.00 75 1012.7
20260504041654 7 263 0.0 0.0 0.00 0.00 0.00 75 1012.6
20260504040152 7 263 0.0 0.0 0.00 0.00 0.00 74 1012.6
20260504040059 7 263 0.0 0.0 0.00 0.00 0.00 71 1012.6
20260504035653 7 263 0.0 0.0 0.00 0.00 0.00 73 1012.5
20260504035154 7 263 0.0 0.0 0.00 0.00 0.00 73 1012.6
20260504034652 7 263 0.0 0.0 0.00 0.00 0.00 72 1012.5
20260504033654 7 263 0.0 0.0 0.00 0.00 0.00 71 1012.6
20260504033153 7 263 0.0 0.0 0.00 0.00 0.00 71 1012.6
20260504032652 7 263 0.0 0.0 0.00 0.00 0.00 70 1012.5
20260504032153 8 263 0.0 0.0 0.00 0.00 0.00 70 1012.5
20260504031654 8 263 0.0 0.0 0.00 0.00 0.00 70 1012.6
20260504031152 8 263 0.0 0.0 0.00 0.00 0.00 69 1012.5
20260504030653 8 263 0.0 0.0 0.00 0.00 0.00 68 1012.5
20260504030154 8 263 0.0 0.0 0.00 0.00 0.00 67 1012.5
20260504025710 9 263 0.0 0.0 0.00 0.00 0.00 63 1012.6
20260504025702 9 263 0.0 0.0 0.00 0.00 0.00 61 1012.6
20260504025652 8 263 0.0 0.0 0.00 0.00 0.00 65 1012.5
20260504025233 8 263 0.0 0.0 0.00 0.00 0.00 65 1012.5
20260504025153 8 263 0.0 0.0 0.00 0.00 0.00 65 1012.5
20260504024653 8 263 0.0 0.0 0.00 0.00 0.00 64 1012.6
20260504024158 8 263 0.0 0.0 0.00 0.00 0.00 64 1012.6
20260504023752 9 263 0.0 0.0 0.00 0.00 0.00 63 1012.6
20260504023653 9 263 0.0 0.0 0.00 0.00 0.00 63 1012.6
20260504023154 9 263 0.0 0.0 0.00 0.00 0.00 61 1012.6
20260504022906 9 263 0.0 0.0 0.00 0.00 0.00 62 1012.6
20260504022503 10 263 0.0 0.0 0.00 0.00 0.00 59 1012.4
20260504022154 9 263 0.0 0.0 0.00 0.00 0.00 62 1012.6
20260504021654 9 263 0.0 0.0 0.00 0.00 0.00 62 1012.6
20260504021155 10 263 0.0 0.0 0.00 0.00 0.00 61 1012.5
20260504020154 10 263 0.0 0.0 0.00 0.00 0.00 59 1012.4
20260504015309 11 263 0.0 0.0 0.00 0.00 0.00 53 1012.2
20260504015253 11 263 0.0 0.0 0.00 0.00 0.00 52 1012.2
20260504013654 11 263 0.0 0.0 0.00 0.00 0.00 53 1012.3
20260504013154 11 263 0.0 0.0 0.00 0.00 0.00 53 1012.2
20260504012154 11 263 0.0 0.0 0.00 0.00 0.00 52 1012.2
20260504012058 12 263 0.0 0.0 0.00 0.00 0.00 46 1011.9
20260504011735 11 263 0.0 0.0 0.00 0.00 0.00 51 1012.1
20260504011654 11 263 0.0 0.0 0.00 0.00 0.00 51 1012.1
20260504010654 11 263 0.0 0.0 0.00 0.00 0.00 49 1012.1
20260504010155 11 263 0.0 0.0 0.00 0.00 0.00 47 1012.0
20260504005654 12 263 0.0 0.0 0.00 0.00 0.00 46 1011.9
20260504005154 12 263 0.0 0.0 0.00 0.00 0.00 46 1011.9
20260504004856 12 263 0.0 0.0 0.00 0.00 0.00 43 1011.7
20260504004655 12 263 0.0 0.0 0.00 0.00 0.00 45 1011.8
20260504004156 12 263 0.0 0.0 0.00 0.00 0.00 45 1011.8
20260504003807 12 263 0.0 0.0 0.00 0.00 0.00 43 1011.7
20260504003655 12 263 0.0 0.0 0.00 0.00 0.00 43 1011.7
20260504003156 13 263 0.0 0.0 0.00 0.00 0.00 41 1011.6
20260504003153 13 263 0.0 0.0 0.00 0.00 0.00 41 1011.4
20260504002654 13 263 0.0 0.0 0.00 0.00 0.00 41 1011.4
20260504001655 13 263 0.0 0.0 0.00 0.00 0.00 37 1011.3
20260504001238 13 263 0.0 0.0 0.00 0.00 0.00 38 1011.3
20260504001154 13 263 0.0 0.0 0.00 0.00 0.00 38 1011.3
20260504000154 14 263 1.6 3.2 0.00 0.00 0.00 35 1011.2
20260503234454 15 286 3.2 4.8 0.00 0.00 0.00 30 1010.6
20260503234153 15 256 4.8 9.7 0.00 0.00 0.00 33 1010.9
20260503233155 15 265 8.0 14.5 0.00 0.00 0.00 32 1010.7
20260503231655 15 286 3.2 4.8 0.00 0.00 0.00 30 1010.6
20260503231257 16 263 8.0 12.9 0.00 0.00 0.00 29 1010.3
20260503231157 15 272 9.7 19.3 0.00 0.00 0.00 30 1010.6
20260503230654 16 275 4.8 4.8 0.00 0.00 0.00 30 1010.5
20260503230305 16 268 9.7 16.1 0.00 0.00 0.00 30 1010.4
20260503230153 16 268 9.7 16.1 0.00 0.00 0.00 30 1010.4
20260503225654 16 286 4.8 11.3 0.00 0.00 0.00 29 1010.3
20260503225154 16 286 8.0 14.5 0.00 0.00 0.00 29 1010.3
20260503224653 16 263 8.0 12.9 0.00 0.00 0.00 29 1010.3
20260503224347 16 268 11.3 19.3 0.00 0.00 0.00 29 1010.3
20260503224154 16 268 11.3 19.3 0.00 0.00 0.00 29 1010.3
20260503223154 16 276 11.3 19.3 0.00 0.00 0.00 29 1010.3
20260503222654 15 261 11.3 19.3 0.00 0.00 0.00 29 1010.3
20260503222157 15 278 14.5 19.3 0.00 0.00 0.00 28 1010.3
20260503220904 16 230 11.3 12.9 0.00 0.00 0.00 29 1010.4
20260503220653 16 287 9.7 16.1 0.00 0.00 0.00 28 1010.4
20260503215830 16 315 16.1 25.7 0.00 0.00 0.00 28 1010.4
20260503215655 16 315 16.1 25.7 0.00 0.00 0.00 28 1010.4
20260503214653 16 230 11.3 12.9 0.00 0.00 0.00 29 1010.4
20260503214144 15 269 20.9 29.0 0.00 0.00 0.00 28 1010.2
20260503213655 15 269 20.9 29.0 0.00 0.00 0.00 28 1010.2
20260503213149 15 328 11.3 12.9 0.00 0.00 0.00 29 1010.0
20260503212655 15 328 11.3 12.9 0.00 0.00 0.00 29 1010.0
20260503212157 15 297 11.3 24.1 0.00 0.00 0.00 30 1010.0
20260503211653 15 296 12.9 25.7 0.00 0.00 0.00 31 1010.1
20260503210451 15 1 8.0 12.9 0.00 0.00 0.00 33 1010.2
20260503210154 15 285 12.9 29.0 0.00 0.00 0.00 31 1010.2
20260503205654 15 260 12.9 20.9 0.00 0.00 0.00 31 1010.1
20260503204654 15 263 14.5 20.9 0.00 0.00 0.00 31 1010.1
20260503203654 15 1 8.0 12.9 0.00 0.00 0.00 33 1010.2
20260503202654 14 292 19.3 27.4 0.00 0.00 0.00 32 1010.3
20260503202442 15 273 14.5 24.1 0.00 0.00 0.00 32 1010.4
20260503202153 15 273 14.5 24.1 0.00 0.00 0.00 32 1010.4
20260503201156 15 302 9.7 12.9 0.00 0.00 0.00 33 1010.2
20260503200653 14 293 14.5 32.2 0.00 0.00 0.00 34 1010.2
20260503200154 14 258 14.5 14.5 0.00 0.00 0.00 33 1010.3
20260503200054 13 295 11.3 19.3 0.00 0.00 0.00 35 1010.4
20260503195730 14 248 14.5 27.4 0.00 0.00 0.00 34 1010.3
20260503195653 14 248 14.5 27.4 0.00 0.00 0.00 34 1010.3
20260503195154 13 271 9.7 22.5 0.00 0.00 0.00 36 1010.4
20260503193654 13 295 11.3 19.3 0.00 0.00 0.00 35 1010.4
20260503193156 13 251 11.3 19.3 0.00 0.00 0.00 36 1010.5
20260503192958 13 285 14.5 24.1 0.00 0.00 0.00 37 1010.6
20260503192848 13 263 14.5 24.1 0.00 0.00 0.00 37 1010.8
20260503192656 13 285 14.5 24.1 0.00 0.00 0.00 37 1010.6
20260503191655 13 323 4.8 11.3 0.00 0.00 0.00 37 1010.8
20260503190154 13 263 14.5 24.1 0.00 0.00 0.00 37 1010.8
20260503185647 12 295 12.9 27.4 0.00 0.00 0.00 40 1011.1
20260503185155 12 292 19.3 27.4 0.00 0.00 0.00 38 1010.9
20260503184653 12 295 12.9 27.4 0.00 0.00 0.00 40 1011.1
20260503184051 12 258 14.5 24.1 0.00 0.00 0.00 39 1011.1
20260503184044 12 268 14.5 19.3 0.00 0.00 0.00 39 1011.2
20260503183654 12 258 14.5 24.1 0.00 0.00 0.00 39 1011.1
20260503183153 12 268 14.5 19.3 0.00 0.00 0.00 39 1011.2
20260503183053 12 272 19.3 32.2 0.00 0.00 0.00 40 1011.2
20260503183043 12 301 12.9 20.9 0.00 0.00 0.00 39 1011.3
20260503182654 12 272 19.3 32.2 0.00 0.00 0.00 40 1011.2
20260503182157 12 301 12.9 20.9 0.00 0.00 0.00 39 1011.3
20260503181156 12 289 11.3 16.1 0.00 0.00 0.00 40 1011.1
20260503180730 12 252 12.9 19.3 0.00 0.00 0.00 39 1011.1
20260503180654 12 252 12.9 19.3 0.00 0.00 0.00 39 1011.1
20260503180156 12 270 12.9 19.3 0.00 0.00 0.00 40 1011.2
20260503175653 12 280 20.9 29.0 0.00 0.00 0.00 39 1011.3
20260503175154 12 296 12.9 19.3 0.00 0.00 0.00 40 1011.1
20260503174154 12 270 16.1 19.3 0.00 0.00 0.00 39 1011.3